Retour au catalogue

OPS 4682 DEB

ActifPO
NORAD 51494·DEBRIS·🇺🇸 United States

Lancé Apr 3, 1965 depuis Vandenberg Space Force Base

Loading…

Prochains Passages (prochaines 24 heures)

TLE

FraisSource: Space-Track

Époque: Sep 13, 2026, 06:55 UTC

1 51494U 65027GE  26256.28831780 -.00000149  00000-0 -54185-3 0  9993
2 51494  90.2506  11.0197 0031130 259.5810 128.3333 12.96608114708808

Suivez OPS 4682 DEB en temps réel avec AllMySat

Download on the App Store